STARLINK-34094, 63822

Orbit data source: Space-Track

STARLINK-34094, 63822 is a payload satellite owned by SpaceX/Seattle (US) in LEO that was launched on Sun, 04 May 2025 UTC via an FALCON 9 launch vehicle from the Air Force Eastern Test Range (AFETR). Payload-class satellites include a variety of spacecraft equipped with specific instruments for various scientific and technological missions. These include communications satellites like Starlink; space stations such as the ISS; scientific satellites like the Hubble; Earth observation satellites from companies like Planet Labs, Umbra, and HawkEye 360; GPS; miniature CubeSats for education and research; and military/defense satellites.

Loading next visibility...
Identifier
63822, 2025-092U
Orbit
LEO
Last TLE update
8 hours ago
Origin
Manufacturer
SpaceX/Seattle
Mission
Operational Commercial Communications
Bus & Motor
STARLINK V2MO, Unknown motor
Mass
575 kg wet, ~530 kg dry
Launch date (UTC)
2025-05-04 (2 months ago)
Launch vehicle
FALCON 9
Launch site
Air Force Eastern Test Range (AFETR)
Object type
Payload
Rocket body
Debris
Shape & HBR
Box + 1 Pan, 14.5 m
Radar Cross Section
41.120 m², Large (>1 m²)

Expand to show TLE details & history

TLE from 8 hours ago
0 STARLINK-34094
1 63822U 25092U   25199.62054895  .00022943  00000-0  83989-3 0  9994
2 63822  42.9938  51.2241 0000782 349.6079  10.4756 15.27610106 12902
Epoch: 2025-07-18T14:53Z
TLE epoch observation values (Epoch: 2025-07-18T14:53:35.429Z)
Latitude
-0.00003°
Longitude
-108.84294°
Altitude
482.206 km
Speed
7.626 km/s
True Right ascension
03h 24m 53s
True Declination
0° 00' 00"
Sunlit
Object was in daylight at epoch
Visualization orbit readout
Latitude
40.12459°
Longitude
-46.73464°
Altitude
485.299 km
Speed
7.628 km/s
Apparent Right ascension
03h 54m 36s
Apparent Declination
3° 29' 51"
Sunlit
Object is in daylight
Visualization observer readout
Local Sidereal Time
11:50:17
Azimuth
292.2° WNW
Elevation
-19.335°
Doppler factor
1
Orbital elements
Apogee altitude
485.442 km
Perigee altitude
484.368 km
Semi-major axis
6,863.042 km
Eccentricity
0.00008
Inclination
42.9938°
RAAN
51.2241°
Arg. of periapsis
349.6079°
True anomaly
10.47723°
Mean anomaly
10.4756°
Eccentric anomaly
10.47641°
Mean motion
3.8174 °/min
Orbital period
94.3 mins
BSTAR
0.00083989
Loading maneuver chart data...
Loading SW <> Apogee altitude chart data...
Loading historical data...
Loading historical data...
Loading historical data...
Loading historical data...
Loading historical data...
Loading historical data...
Loading historical data...
|